QPF
0.00 0.00 0.00 0.00 0.00 0.00 0.00 0.00 0.00 0.00 0.00 0.00 0.00 0.00 0.00 0.01 0.00 0.00 0.00 0.00 0.00 0.00 0.00 0.00 0.00 0.00 0.00 0.00 0.00 0.00 0.00 0.00 0.00 0.00 0.00 0.00 0.00 0.00 0.00 0.00 0.00 0.00 0.01 0.00 0.00 0.00 0.00 0.00 0.00
0.00 0.00 0.00 0.01 0.00 0.00 0.00 0.00 0.00 0.00 0.00 0.00 0.00 0.00 0.00 0.00 0.00 0.00 0.00 0.00 0.00 0.00 0.00 0.00 0.00 0.00 0.00 0.00 0.00 0.00 0.00 0.00 0.00 0.00 0.00 0.00 0.00 0.00 0.00 0.00 0.00 0.00 0.00 0.00 0.00 0.00 0.00 0.00 0.00
0.00 0.00 0.00 0.00 0.00 0.00 0.00 0.00 0.00 0.00 0.00 0.00 0.00 0.00 0.00 0.00 0.00 0.00 0.00 0.00 0.00 0.00 0.00 0.00 0.00 0.00 0.00 0.00 0.00 0.00 0.00 0.00 0.00 0.00 0.00 0.00 0.00 0.00 0.00 0.00 0.00 0.00 0.00 0.00 0.00 0.00 0.00 0.00 0.00
0.00 0.00 0.00 0.01 0.00 0.00 0.00 0.00 0.00 0.00 0.00 0.00 0.00 0.00 0.00 0.00 0.00 0.00 0.00 0.00 0.00 0.00 0.00 0.00 0.00 0.00 0.00 0.00 0.00 0.00 0.00 0.00 0.00 0.00 0.00 0.00 0.00 0.00 0.00 0.00 0.00 0.00 0.00 0.00 0.00 0.00 0.00 0.00 0.00
0.00 0.00 0.00 0.00 0.00 0.00 0.00 0.00 0.00 0.00 0.00 0.00 0.00 0.00 0.00 0.00 0.00 0.00 0.00 0.00 0.00 0.00 0.00 0.00 0.00 0.00 0.00 0.00 0.00 0.00 0.00 0.00 0.00 0.00 0.00 0.00 0.00 0.00 0.00 0.00 0.00 0.00 0.00 0.00 0.00 0.00 0.00 0.00 0.00
0.00 0.00 0.00 0.01 0.00 0.00 0.00 0.00 0.00 0.00 0.00 0.00 0.00 0.00 0.00 0.00 0.00 0.00 0.00 0.00 0.00 0.00 0.00 0.00 0.00 0.00 0.00 0.00 0.00 0.00 0.00 0.00 0.00 0.00 0.00 0.00 0.00 0.00 0.00 0.00 0.00 0.00 0.00 0.00 0.00 0.00 0.00 0.00 0.00
0.00 0.00 0.00 0.01 0.02 0.02 0.01 0.00 0.00 0.00 0.00 0.00 0.00 0.00 0.00 0.00 0.00 0.00 0.00 0.00 0.00 0.00 0.00 0.00 0.00 0.00 0.00 0.00 0.00 0.00 0.00 0.00 0.00 0.00 0.00 0.00 0.00 0.00 0.00 0.00 0.00 0.00 0.00 0.00 0.00 0.00 0.00 0.00 0.00
0.00 0.00 0.00 0.00 0.01 0.01 0.00 0.00 0.00 0.00 0.00 0.00 0.00 0.00 0.00 0.00 0.00 0.00 0.00 0.00 0.00 0.00 0.00 0.00 0.00 0.00 0.00 0.00 0.00 0.00 0.00 0.00 0.00 0.00 0.00 0.00 0.00 0.00 0.00 0.00 0.00 0.00 0.00 0.00 0.00 0.00 0.00 0.00 0.00
0.00 0.00 0.00 0.00 0.02 0.01 0.00 0.00 0.00 0.00 0.00 0.00 0.00 0.00 0.00 0.00 0.00 0.00 0.00 0.00 0.00 0.00 0.00 0.00 0.00 0.00 0.00 0.00 0.00 0.00 0.00 0.00 0.00 0.00 0.00 0.00 0.00 0.00 0.00 0.00 0.00 0.00 0.00 0.00 0.00 0.00 0.00 0.00 0.00
0.00 0.00 0.00 0.00 0.00 0.01 0.00 0.00 0.00 0.00 0.00 0.00 0.00 0.00 0.00 0.00 0.00 0.00 0.00 0.00 0.00 0.00 0.00 0.00 0.00 0.00 0.00 0.00 0.00 0.00 0.00 0.00 0.00 0.00 0.00 0.00 0.00 0.00 0.00 0.00 0.00 0.00 0.00 0.00 0.00 0.00 0.00 0.00 0.00
0.00 0.00 0.00 0.00 0.00 0.00 0.00 0.00 0.00 0.00 0.00 0.00 0.00 0.00 0.00 0.00 0.00 0.00 0.00 0.00 0.00 0.00 0.00 0.00 0.00 0.00 0.00 0.00 0.00 0.00 0.00 0.00 0.00 0.00 0.00 0.00 0.00 0.00 0.00 0.00 0.00 0.00 0.00 0.00 0.00 0.00 0.00 0.00 0.00
0.00 0.00 0.00 0.00 0.00 0.00 0.00 0.00 0.00 0.00 0.00 0.00 0.00 0.00 0.00 0.00 0.00 0.00 0.00 0.00 0.00 0.00 0.00 0.00 0.00 0.00 0.00 0.00 0.00 0.00 0.00 0.00 0.00 0.00 0.00 0.00 0.00 0.00 0.00 0.00 0.00 0.00 0.00 0.00 0.00 0.00 0.00 0.00 0.00
0.00 0.00 0.00 0.00 0.00 0.00 0.00 0.03 0.00 0.00 0.00 0.00 0.00 0.00 0.00 0.00 0.00 0.00 0.00 0.00 0.00 0.00 0.00 0.00 0.00 0.00 0.00 0.00 0.00 0.00 0.00 0.00 0.00 0.00 0.00 0.00 0.00 0.00 0.00 0.00 0.00 0.00 0.00 0.00 0.00 0.00 0.00 0.00 0.00
0.00 0.00 0.00 0.00 0.00 0.00 0.00 0.01 0.00 0.00 0.00 0.00 0.00 0.00 0.00 0.00 0.00 0.00 0.00 0.00 0.00 0.00 0.00 0.00 0.00 0.00 0.00 0.00 0.00 0.00 0.00 0.00 0.00 0.00 0.00 0.00 0.00 0.00 0.00 0.00 0.00 0.00 0.00 0.00 0.00 0.00 0.00 0.00 0.00
0.00 0.00 0.00 0.00 0.00 0.00 0.00 0.00 0.01 0.00 0.00 0.00 0.00 0.00 0.00 0.00 0.00 0.00 0.00 0.00 0.00 0.00 0.00 0.00 0.00 0.00 0.00 0.00 0.00 0.00 0.00 0.00 0.00 0.00 0.00 0.00 0.00 0.00 0.00 0.00 0.00 0.00 0.00 0.00 0.00 0.00 0.00 0.00 0.00
0.00 0.00 0.00 0.00 0.00 0.00 0.00 0.00 0.00 0.01 0.01 0.00 0.00 0.00 0.00 0.00 0.00 0.00 0.00 0.00 0.00 0.00 0.00 0.00 0.00 0.00 0.00 0.00 0.00 0.00 0.00 0.00 0.00 0.00 0.00 0.00 0.00 0.00 0.00 0.00 0.00 0.00 0.00 0.00 0.00 0.00 0.00 0.00 0.00
0.00 0.00 0.00 0.00 0.00 0.00 0.00 0.00 0.00 0.00 0.00 0.00 0.00 0.00 0.00 0.00 0.00 0.00 0.00 0.00 0.00 0.00 0.00 0.00 0.00 0.00 0.00 0.00 0.00 0.00 0.00 0.00 0.00 0.00 0.00 0.00 0.00 0.00 0.00 0.00 0.00 0.00 0.00 0.00 0.00 0.00 0.00 0.00 0.00
0.00 0.00 0.00 0.00 0.00 0.00 0.00 0.00 0.00 0.00 0.00 0.00 0.00 0.00 0.00 0.00 0.00 0.00 0.00 0.00 0.00 0.00 0.00 0.00 0.00 0.00 0.00 0.00 0.00 0.00 0.00 0.00 0.00 0.00 0.00 0.00 0.00 0.00 0.00 0.00 0.00 0.00 0.00 0.00 0.00 0.00 0.00 0.00 0.00
0.00 0.00 0.00 0.00 0.00 0.00 0.00 0.00 0.00 0.00 0.00 0.00 0.00 0.00 0.00 0.00 0.00 0.00 0.00 0.00 0.00 0.00 0.00 0.00 0.00 0.00 0.00 0.00 0.00 0.00 0.00 0.00 0.00 0.00 0.00 0.00 0.00 0.00 0.00 0.00 0.00 0.00 0.00 0.00 0.00 0.00 0.00 0.00 0.00
0.00 0.00 0.00 0.00 0.00 0.00 0.00 0.00 0.00 0.00 0.00 0.00 0.00 0.00 0.00 0.00 0.00 0.00 0.00 0.00 0.00 0.00 0.00 0.00 0.00 0.00 0.00 0.00 0.00 0.00 0.00 0.00 0.00 0.00 0.00 0.00 0.00 0.00 0.00 0.01 0.01 0.00 0.01 0.00 0.00 0.00 0.00 0.00 0.00
0.00 0.00 0.00 0.00 0.00 0.00 0.00 0.00 0.00 0.00 0.00 0.00 0.00 0.00 0.00 0.00 0.00 0.00 0.00 0.00 0.00 0.00 0.00 0.00 0.00 0.00 0.00 0.00 0.00 0.00 0.00 0.00 0.00 0.00 0.00 0.00 0.00 0.00 0.00 0.02 0.08 0.00 0.00 0.00 0.00 0.00 0.00 0.01 0.02
0.00 0.00 0.00 0.00 0.00 0.00 0.00 0.00 0.00 0.00 0.00 0.00 0.00 0.00 0.00 0.00 0.00 0.00 0.00 0.00 0.00 0.00 0.00 0.00 0.00 0.00 0.00 0.00 0.00 0.00 0.00 0.00 0.00 0.00 0.00 0.00 0.01 0.00 0.01 0.01 0.03 0.01 0.00 0.01 0.00 0.00 0.00 0.05 0.05
0.00 0.00 0.00 0.00 0.00 0.00 0.00 0.00 0.00 0.00 0.00 0.00 0.00 0.00 0.00 0.00 0.00 0.00 0.00 0.00 0.00 0.00 0.00 0.00 0.00 0.00 0.00 0.00 0.00 0.00 0.00 0.00 0.00 0.00 0.01 0.05 0.10 0.09 0.08 0.06 0.08 0.11 0.06 0.05 0.01 0.00 0.12 0.11 0.03
0.00 0.00 0.00 0.00 0.00 0.00 0.00 0.00 0.00 0.00 0.00 0.00 0.00 0.00 0.00 0.00 0.00 0.00 0.00 0.00 0.00 0.00 0.00 0.00 0.00 0.00 0.00 0.00 0.00 0.00 0.00 0.00 0.01 0.04 0.13 0.28 0.28 0.16 0.19 0.21 0.21 0.21 0.24 0.22 0.15 0.09 0.12 0.01 0.00
0.00 0.00 0.00 0.00 0.00 0.00 0.00 0.00 0.00 0.00 0.00 0.00 0.00 0.00 0.00 0.00 0.00 0.00 0.00 0.00 0.00 0.00 0.00 0.00 0.00 0.00 0.00 0.00 0.00 0.00 0.01 0.01 0.06 0.12 0.20 0.25 0.19 0.16 0.15 0.11 0.18 0.17 0.31 0.31 0.25 0.17 0.12 0.09 0.04
0.00 0.00 0.00 0.00 0.00 0.00 0.00 0.00 0.00 0.00 0.00 0.00 0.00 0.00 0.00 0.00 0.00 0.00 0.00 0.00 0.00 0.00 0.00 0.00 0.00 0.00 0.00 0.00 0.04 0.01 0.03 0.09 0.12 0.10 0.17 0.14 0.04 0.02 0.03 0.06 0.26 0.33 0.34 0.30 0.22 0.31 0.23 0.05 0.02
0.00 0.00 0.00 0.00 0.00 0.00 0.00 0.00 0.00 0.00 0.00 0.00 0.00 0.00 0.00 0.00 0.00 0.00 0.00 0.00 0.00 0.00 0.00 0.00 0.00 0.01 0.09 0.10 0.03 0.03 0.16 0.30 0.27 0.16 0.08 0.03 0.02 0.01 0.04 0.05 0.22 0.27 0.25 0.20 0.25 0.14 0.04 0.02 0.02
0.00 0.00 0.00 0.00 0.00 0.00 0.00 0.00 0.00 0.00 0.00 0.00 0.00 0.00 0.00 0.00 0.00 0.00 0.00 0.00 0.00 0.00 0.00 0.00 0.00 0.00 0.01 0.00 0.03 0.14 0.30 0.27 0.12 0.07 0.04 0.03 0.02 0.02 0.09 0.06 0.12 0.18 0.27 0.20 0.07 0.01 0.00 0.00 0.00
0.00 0.00 0.00 0.00 0.00 0.00 0.00 0.00 0.00 0.00 0.00 0.00 0.00 0.00 0.00 0.00 0.00 0.02 0.01 0.01 0.00 0.00 0.00 0.00 0.00 0.00 0.00 0.00 0.03 0.16 0.20 0.15 0.11 0.08 0.09 0.05 0.02 0.03 0.13 0.14 0.18 0.15 0.08 0.02 0.00 0.00 0.00 0.00 0.00
0.00 0.00 0.00 0.00 0.00 0.00 0.00 0.00 0.00 0.00 0.00 0.00 0.00 0.00 0.00 0.00 0.01 0.09 0.13 0.08 0.06 0.01 0.00 0.00 0.07 0.19 0.15 0.06 0.14 0.19 0.20 0.26 0.17 0.11 0.06 0.04 0.08 0.15 0.17 0.10 0.08 0.02 0.00 0.00 0.00 0.00 0.00 0.00 0.00
MSLP
1009.22 1009.32 1009.52 1009.59 1009.66 1008.64 1007.34 1005.98 1004.46 1004.26 1004.28 1004.57 1004.93 1005.79 1007.10 1007.82 1008.46 1011.30 1011.96 1011.93 1012.91 1013.71 1014.38 1014.76 1015.04 1015.30 1015.57 1015.87 1016.04 1016.04 1016.16 1016.42 1016.51 1016.51 1016.56 1016.60 1016.63 1016.72 1016.73 1016.69 1016.60 1016.56 1016.52 1016.56 1016.63 1016.64 1016.65 1016.74 1016.83
1008.71 1008.83 1009.02 1008.71 1008.82 1008.31 1006.62 1005.01 1004.60 1004.42 1004.41 1004.80 1005.49 1006.25 1007.18 1008.40 1008.33 1010.84 1011.91 1012.78 1012.95 1013.62 1014.41 1014.79 1015.08 1015.33 1015.70 1015.95 1016.08 1016.20 1016.37 1016.42 1016.52 1016.67 1016.77 1016.88 1016.91 1016.93 1016.97 1016.95 1016.90 1016.82 1016.79 1016.73 1016.79 1016.86 1016.87 1016.89 1016.95
1008.87 1008.72 1008.94 1008.89 1008.11 1007.22 1005.71 1004.48 1004.14 1004.21 1004.24 1004.79 1005.96 1006.85 1007.74 1008.50 1009.11 1010.50 1011.79 1012.66 1012.85 1013.83 1014.44 1014.73 1015.06 1015.51 1015.75 1015.93 1016.20 1016.40 1016.53 1016.56 1016.62 1016.73 1016.93 1017.06 1017.19 1017.13 1017.09 1017.05 1017.08 1017.00 1016.95 1016.94 1016.99 1017.05 1017.05 1017.08 1017.13
1008.77 1008.90 1008.80 1008.80 1008.22 1006.72 1005.82 1004.11 1003.85 1004.29 1004.72 1005.68 1006.28 1007.81 1008.36 1008.41 1009.33 1010.51 1011.69 1012.20 1012.99 1014.05 1014.53 1014.77 1015.17 1015.56 1015.76 1015.94 1016.28 1016.56 1016.71 1016.81 1016.95 1017.07 1017.15 1017.20 1017.26 1017.34 1017.29 1017.26 1017.27 1017.25 1017.13 1017.06 1017.08 1017.16 1017.15 1017.14 1017.18
1008.73 1008.65 1009.20 1009.17 1007.74 1006.08 1004.44 1003.35 1003.47 1004.11 1004.99 1006.23 1006.84 1008.54 1008.96 1008.99 1009.65 1010.55 1011.30 1012.11 1013.12 1014.15 1014.68 1014.94 1015.20 1015.54 1015.86 1016.12 1016.46 1016.71 1016.95 1017.13 1017.21 1017.32 1017.33 1017.37 1017.43 1017.51 1017.48 1017.48 1017.49 1017.47 1017.43 1017.31 1017.22 1017.19 1017.27 1017.24 1017.28
1008.82 1008.43 1009.27 1008.88 1008.25 1006.18 1004.32 1002.98 1003.22 1003.92 1004.95 1006.27 1007.36 1008.47 1009.36 1009.39 1009.77 1010.44 1011.05 1012.17 1012.86 1013.93 1014.71 1015.01 1015.34 1015.72 1016.10 1016.31 1016.59 1016.86 1017.09 1017.31 1017.47 1017.52 1017.53 1017.52 1017.60 1017.60 1017.53 1017.58 1017.62 1017.64 1017.64 1017.58 1017.56 1017.43 1017.32 1017.21 1017.22
1008.51 1008.56 1009.05 1008.59 1008.13 1005.97 1004.63 1002.80 1003.25 1003.82 1004.77 1005.86 1006.93 1008.58 1009.50 1009.64 1009.73 1010.15 1010.96 1012.08 1012.90 1013.57 1014.55 1015.16 1015.48 1015.83 1016.17 1016.41 1016.69 1016.96 1017.17 1017.32 1017.45 1017.50 1017.62 1017.75 1017.73 1017.77 1017.64 1017.64 1017.61 1017.63 1017.64 1017.62 1017.55 1017.46 1017.39 1017.35 1017.38
1007.24 1007.97 1008.21 1007.88 1006.89 1006.24 1003.13 1002.81 1003.15 1003.50 1004.26 1005.56 1006.44 1008.07 1009.19 1009.36 1009.46 1009.83 1010.81 1011.90 1012.72 1013.57 1014.33 1015.22 1015.56 1015.89 1016.26 1016.51 1016.68 1016.85 1017.08 1017.23 1017.40 1017.56 1017.74 1017.66 1017.81 1017.79 1017.75 1017.59 1017.46 1017.48 1017.52 1017.51 1017.48 1017.43 1017.37 1017.22 1017.29
1006.51 1007.27 1006.49 1005.53 1005.46 1005.38 1002.82 1002.90 1003.26 1003.47 1004.16 1005.14 1005.52 1006.73 1007.93 1008.81 1009.34 1009.78 1010.60 1011.80 1012.59 1013.25 1013.91 1014.75 1015.37 1015.81 1016.17 1016.55 1016.61 1016.72 1016.93 1017.16 1017.33 1017.43 1017.49 1017.51 1017.58 1017.67 1017.64 1017.61 1017.63 1017.47 1017.50 1017.41 1017.54 1017.39 1017.49 1017.36 1017.24
1006.24 1006.10 1004.81 1003.71 1003.53 1003.31 1002.47 1002.33 1002.81 1003.53 1004.49 1005.73 1006.32 1007.19 1007.99 1008.54 1009.26 1009.79 1010.32 1011.46 1012.11 1012.86 1013.47 1013.97 1014.67 1015.21 1015.62 1015.80 1016.40 1016.73 1016.85 1017.02 1017.17 1017.18 1017.39 1017.44 1017.52 1017.57 1017.44 1017.56 1017.50 1017.60 1017.54 1017.41 1017.53 1017.65 1017.54 1017.45 1017.42
1005.39 1004.85 1003.59 1002.77 1001.49 1001.63 1001.75 1002.01 1002.23 1003.49 1004.72 1005.46 1006.48 1007.51 1008.16 1008.65 1009.19 1009.65 1010.07 1010.64 1011.29 1011.88 1012.62 1013.31 1013.78 1014.22 1014.86 1015.21 1015.95 1016.24 1016.42 1016.61 1016.72 1016.78 1017.07 1017.28 1017.20 1017.45 1017.67 1017.80 1017.61 1017.62 1017.58 1017.70 1017.52 1017.60 1017.54 1017.56 1017.33
1004.83 1003.57 1002.83 1002.33 1001.06 1001.01 1001.65 1001.61 1002.36 1003.01 1004.30 1005.21 1006.37 1007.22 1008.14 1008.73 1009.14 1009.45 1009.80 1010.25 1010.63 1011.45 1011.95 1012.67 1013.03 1013.61 1014.17 1014.97 1015.34 1015.37 1015.78 1016.08 1016.38 1016.39 1016.46 1016.68 1016.95 1017.04 1017.24 1017.38 1017.35 1017.55 1017.53 1017.72 1017.71 1017.69 1017.56 1017.35 1017.41
1004.43 1003.24 1002.09 1001.44 1000.72 1000.86 1001.47 1001.80 1002.82 1003.74 1004.34 1005.25 1006.37 1007.30 1008.15 1008.69 1009.05 1009.26 1009.44 1009.83 1010.21 1010.84 1011.62 1012.25 1012.57 1013.08 1013.80 1014.55 1014.74 1014.84 1015.21 1015.62 1015.67 1015.81 1015.99 1016.02 1016.41 1016.63 1016.93 1016.96 1016.93 1017.26 1017.31 1017.34 1017.43 1017.69 1017.63 1017.25 1016.99
1004.04 1003.39 1002.00 1001.34 1001.20 1000.72 1001.10 1002.32 1002.70 1004.22 1004.34 1005.36 1006.18 1007.21 1008.01 1008.52 1008.85 1009.16 1009.46 1009.98 1010.15 1010.50 1011.32 1011.79 1012.22 1012.59 1013.20 1014.10 1014.30 1014.59 1014.69 1014.97 1015.25 1015.37 1015.46 1015.72 1016.09 1016.38 1016.61 1016.73 1016.74 1016.82 1016.88 1016.89 1017.00 1017.39 1017.30 1017.14 1017.04
1003.85 1003.68 1002.35 1001.41 1001.06 1000.87 1000.99 1002.54 1003.96 1004.87 1004.85 1005.69 1006.40 1006.96 1007.84 1008.36 1008.51 1008.86 1009.15 1009.63 1009.91 1010.25 1010.82 1011.44 1011.87 1012.19 1012.57 1013.26 1013.53 1013.84 1014.11 1014.48 1014.64 1014.99 1015.24 1015.54 1015.82 1016.25 1016.39 1016.61 1016.61 1016.45 1016.45 1016.80 1016.91 1017.04 1017.15 1017.26 1017.23
1004.37 1003.66 1003.11 1001.68 1001.14 1000.88 1001.35 1003.32 1003.97 1004.64 1005.40 1006.32 1006.59 1007.00 1007.41 1007.97 1008.16 1008.39 1008.57 1008.90 1009.46 1010.05 1010.50 1010.95 1011.42 1011.92 1012.33 1012.93 1013.44 1013.68 1013.82 1014.20 1014.39 1014.62 1014.96 1015.11 1015.39 1015.64 1015.88 1016.24 1016.53 1016.46 1016.33 1016.36 1016.57 1016.82 1017.03 1017.32 1017.39
1004.71 1004.38 1003.49 1002.36 1001.22 1001.21 1001.61 1003.25 1003.86 1004.01 1004.41 1005.33 1006.54 1006.75 1007.20 1007.34 1007.79 1007.82 1007.98 1008.38 1008.88 1009.52 1010.20 1010.70 1011.11 1011.80 1012.29 1012.74 1013.23 1013.53 1013.74 1014.01 1014.07 1014.26 1014.65 1014.71 1014.75 1015.05 1015.42 1015.74 1015.67 1015.62 1016.20 1016.44 1016.62 1016.86 1016.82 1017.05 1017.13
1005.14 1004.40 1003.57 1002.66 1001.17 1001.35 1001.65 1002.37 1003.65 1003.81 1004.73 1006.20 1006.38 1006.26 1006.73 1006.96 1006.92 1007.15 1007.45 1007.83 1008.41 1009.10 1009.64 1010.13 1010.83 1011.40 1012.08 1012.70 1013.25 1013.65 1013.83 1013.96 1013.70 1013.89 1014.09 1014.09 1014.38 1014.63 1014.99 1015.27 1015.48 1015.22 1015.69 1016.06 1016.43 1016.54 1016.78 1016.81 1016.91
1004.45 1004.08 1003.43 1001.87 1000.86 1000.94 1001.19 1002.14 1003.39 1004.67 1004.96 1006.09 1006.60 1006.13 1005.69 1006.10 1006.07 1006.54 1006.91 1007.24 1007.90 1008.64 1009.39 1009.95 1010.53 1011.05 1011.82 1012.67 1013.30 1013.87 1013.79 1013.76 1013.66 1013.56 1013.48 1013.54 1013.73 1013.91 1014.40 1014.72 1015.16 1015.19 1015.53 1015.61 1015.81 1016.14 1016.42 1016.75 1016.64
1003.74 1003.52 1003.12 1002.00 1000.80 1000.74 1000.93 1001.86 1002.68 1004.11 1004.41 1004.40 1004.86 1004.54 1004.58 1005.10 1005.31 1005.48 1005.90 1006.28 1006.80 1007.76 1008.57 1009.27 1009.75 1010.53 1011.14 1011.77 1012.35 1012.91 1013.06 1013.14 1013.22 1013.13 1013.03 1013.15 1013.10 1013.21 1013.63 1014.24 1014.58 1014.95 1015.22 1015.41 1015.59 1015.78 1016.44 1016.85 1016.75
1002.84 1002.92 1002.65 1002.21 1001.24 1001.08 1001.34 1001.84 1002.25 1002.95 1003.02 1003.14 1003.13 1002.89 1003.29 1003.53 1003.89 1004.42 1004.86 1005.00 1005.69 1006.39 1007.05 1007.95 1008.66 1009.48 1010.18 1011.13 1011.81 1012.25 1012.62 1012.83 1012.92 1012.78 1012.58 1012.40 1012.41 1012.56 1012.80 1013.13 1014.28 1014.62 1014.98 1015.32 1015.65 1015.68 1016.10 1016.72 1017.06
1002.02 1001.83 1002.19 1002.28 1002.35 1002.57 1001.97 1002.52 1001.97 1001.76 1001.96 1001.87 1001.46 1002.02 1002.17 1002.28 1002.42 1002.87 1003.31 1003.97 1004.14 1004.36 1005.48 1006.32 1007.07 1007.98 1008.92 1009.88 1010.84 1011.43 1011.87 1012.17 1012.06 1011.85 1011.91 1012.14 1012.46 1012.87 1013.20 1013.43 1013.26 1013.94 1014.44 1014.83 1015.35 1015.50 1015.78 1016.20 1016.82
1001.85 1001.97 1002.56 1002.88 1003.16 1003.24 1002.79 1003.12 1002.05 1001.36 1001.14 1000.71 1000.42 1000.07 1000.82 1000.78 1000.98 1001.24 1001.80 1001.99 1002.10 1003.31 1004.08 1004.85 1005.87 1006.74 1007.53 1008.48 1009.54 1010.61 1011.18 1011.22 1011.22 1011.48 1011.77 1011.81 1012.50 1012.94 1013.78 1013.72 1013.55 1014.30 1014.07 1014.21 1014.83 1015.32 1015.74 1015.94 1016.43
1001.70 1002.26 1002.93 1003.43 1004.20 1004.49 1003.72 1003.21 1002.64 1001.70 1000.57 1000.03 999.56 999.47 999.59 999.82 999.64 999.99 1000.16 1000.56 1001.43 1001.99 1003.22 1004.32 1005.07 1006.03 1006.61 1007.37 1008.61 1009.52 1010.32 1010.91 1011.39 1011.66 1012.04 1012.83 1013.58 1013.72 1014.39 1013.90 1013.46 1013.83 1014.52 1014.56 1014.41 1014.63 1015.22 1015.58 1015.96
1002.04 1003.23 1004.61 1005.38 1005.52 1005.48 1003.83 1003.61 1001.94 1000.02 999.06 999.01 999.03 998.73 998.80 998.99 999.23 999.39 1000.17 1000.47 1000.96 1001.82 1002.50 1003.30 1004.55 1005.25 1006.16 1006.98 1007.68 1008.43 1009.26 1010.33 1011.34 1011.87 1012.45 1012.91 1013.16 1013.89 1013.44 1013.53 1013.35 1013.62 1014.22 1014.39 1013.34 1014.76 1014.86 1015.34 1015.81
1002.49 1003.60 1005.08 1005.77 1006.11 1005.72 1004.29 1002.85 1000.91 999.19 998.15 998.49 998.43 998.63 998.92 999.18 999.33 999.27 999.28 999.12 999.41 1000.63 1001.42 1002.39 1003.52 1004.40 1006.10 1007.73 1008.68 1009.40 1009.11 1009.70 1010.61 1011.40 1012.43 1013.06 1013.47 1013.21 1012.60 1013.19 1013.80 1014.20 1014.38 1014.53 1014.49 1015.00 1014.84 1015.29 1015.68
1002.40 1003.18 1003.63 1005.39 1005.68 1005.64 1004.33 1002.36 1000.45 999.55 998.87 999.01 999.19 999.31 999.79 1000.18 999.94 1000.16 1000.67 1000.47 1000.40 1000.18 1000.55 1001.25 1003.27 1004.65 1005.21 1005.43 1005.66 1005.64 1009.03 1010.35 1011.42 1012.42 1012.25 1012.97 1013.82 1013.04 1012.28 1012.84 1013.12 1013.23 1013.84 1014.77 1014.83 1015.11 1015.58 1015.51 1015.73
1001.91 1002.75 1004.01 1005.30 1006.05 1005.82 1004.77 1003.72 1002.84 1001.70 1001.29 1001.02 1001.29 1001.05 1000.82 1000.94 1001.34 1002.08 1002.89 1003.39 1003.24 1002.31 1000.79 1002.05 1002.74 1003.56 1004.90 1005.93 1006.84 1007.75 1009.17 1009.88 1010.58 1011.99 1012.27 1013.45 1013.62 1012.46 1012.27 1012.78 1013.04 1013.21 1013.51 1014.04 1014.72 1015.21 1015.30 1015.51 1015.97
1002.19 1002.68 1003.83 1004.94 1005.87 1006.20 1005.68 1005.01 1003.44 1003.05 1003.10 1003.41 1003.70 1003.77 1003.50 1003.36 1004.23 1006.18 1006.89 1007.88 1003.94 1003.56 1003.87 1004.68 1005.33 1006.24 1006.99 1007.27 1007.49 1008.39 1009.68 1010.20 1011.43 1012.64 1012.55 1012.76 1012.88 1012.36 1012.62 1012.58 1012.93 1013.65 1014.08 1014.51 1014.83 1015.21 1015.63 1016.11 1016.15
1002.03 1002.72 1003.51 1005.15 1006.08 1006.24 1006.17 1006.86 1004.51 1004.28 1004.34 1004.58 1005.16 1005.61 1005.76 1006.40 1007.15 1007.34 1008.27 1006.36 1006.13 1006.87 1006.49 1007.19 1007.76 1007.95 1008.55 1009.56 1010.19 1010.34 1010.95 1011.07 1012.04 1012.77 1012.66 1012.65 1012.72 1012.68 1013.31 1013.72 1014.04 1013.87 1014.55 1014.97 1015.19 1015.57 1015.86 1016.01 1016.20
Thickness
5832 5830 5829 5817 5784 5783 5777 5798 5830 5820 5819 5830 5832 5816 5799 5799 5789 5750 5793 5796 5789 5781 5774 5771 5769 5767 5765 5762 5759 5759 5757 5753 5751 5749 5747 5745 5744 5742 5741 5740 5740 5739 5739 5738 5736 5735 5734 5732 5731
5836 5834 5826 5811 5774 5758 5784 5820 5814 5820 5832 5832 5828 5819 5803 5783 5812 5792 5786 5789 5788 5782 5775 5771 5768 5767 5764 5761 5759 5757 5755 5753 5751 5748 5746 5744 5741 5739 5738 5737 5737 5737 5736 5735 5733 5732 5731 5730 5729
5834 5834 5806 5792 5781 5769 5789 5822 5822 5834 5839 5830 5813 5819 5804 5792 5807 5798 5795 5790 5788 5781 5775 5772 5770 5767 5764 5762 5758 5756 5754 5753 5750 5748 5745 5742 5738 5738 5737 5737 5736 5736 5735 5734 5733 5732 5730 5729 5728
5827 5819 5811 5780 5775 5798 5805 5826 5833 5827 5830 5829 5819 5792 5807 5816 5805 5804 5799 5796 5789 5779 5775 5773 5770 5767 5764 5762 5757 5755 5753 5751 5748 5746 5743 5741 5739 5736 5736 5736 5735 5734 5734 5733 5732 5731 5730 5728 5727
5825 5811 5779 5762 5784 5808 5834 5849 5842 5828 5824 5816 5814 5786 5790 5809 5814 5808 5803 5798 5787 5779 5776 5774 5771 5768 5764 5761 5757 5755 5751 5749 5747 5745 5743 5741 5738 5736 5735 5735 5733 5733 5732 5732 5732 5731 5730 5729 5727
5801 5809 5766 5759 5772 5809 5837 5852 5846 5832 5826 5818 5805 5794 5789 5811 5809 5808 5808 5796 5790 5782 5776 5774 5770 5767 5763 5760 5757 5754 5751 5749 5747 5745 5742 5741 5739 5737 5736 5735 5733 5731 5730 5730 5729 5729 5730 5730 5729
5798 5790 5770 5779 5777 5799 5822 5857 5841 5833 5824 5819 5820 5788 5793 5802 5810 5812 5810 5798 5791 5785 5779 5774 5771 5768 5764 5760 5756 5754 5752 5750 5748 5746 5743 5740 5739 5736 5736 5734 5733 5732 5731 5730 5731 5730 5729 5728 5728
5817 5801 5783 5783 5773 5781 5852 5854 5857 5842 5829 5841 5833 5794 5785 5805 5816 5815 5812 5799 5793 5787 5781 5775 5772 5769 5765 5761 5758 5756 5754 5751 5749 5746 5744 5743 5740 5738 5736 5736 5736 5736 5735 5734 5733 5731 5732 5731 5729
5836 5785 5784 5801 5800 5794 5850 5842 5856 5860 5839 5835 5839 5823 5820 5821 5819 5813 5808 5799 5793 5790 5786 5779 5774 5771 5767 5763 5761 5758 5755 5752 5750 5749 5747 5746 5744 5741 5739 5738 5737 5738 5736 5735 5733 5734 5730 5729 5728
5815 5787 5804 5838 5841 5832 5850 5850 5850 5840 5833 5823 5824 5827 5826 5822 5815 5807 5803 5799 5795 5791 5789 5787 5780 5776 5772 5769 5765 5761 5757 5754 5752 5752 5748 5746 5744 5741 5740 5739 5739 5737 5737 5737 5734 5731 5730 5728 5728
5821 5802 5833 5847 5872 5865 5857 5852 5859 5835 5819 5826 5816 5816 5820 5817 5813 5808 5806 5806 5805 5801 5797 5793 5789 5784 5778 5775 5769 5765 5762 5758 5757 5755 5750 5746 5744 5741 5738 5737 5737 5736 5735 5733 5731 5730 5731 5730 5731
5810 5834 5842 5853 5873 5870 5851 5863 5850 5848 5837 5841 5831 5827 5821 5814 5811 5809 5808 5808 5808 5805 5801 5798 5796 5790 5784 5777 5773 5771 5766 5762 5758 5756 5754 5751 5748 5747 5743 5740 5737 5735 5733 5731 5729 5728 5729 5730 5726
5816 5832 5849 5860 5872 5871 5865 5854 5839 5840 5849 5845 5835 5827 5820 5815 5813 5815 5815 5813 5811 5805 5804 5800 5799 5794 5787 5781 5776 5774 5768 5764 5762 5760 5757 5752 5749 5746 5742 5741 5740 5736 5734 5731 5729 5726 5725 5728 5728
5829 5832 5847 5857 5858 5871 5861 5850 5845 5842 5853 5840 5833 5824 5821 5817 5815 5814 5813 5810 5809 5809 5803 5802 5798 5796 5790 5781 5779 5777 5775 5771 5767 5760 5757 5751 5747 5743 5741 5741 5738 5737 5735 5734 5730 5725 5723 5723 5725
5832 5814 5834 5847 5854 5859 5870 5838 5819 5836 5846 5833 5829 5828 5822 5819 5820 5815 5816 5813 5811 5810 5809 5803 5800 5799 5794 5787 5783 5778 5775 5769 5766 5761 5756 5752 5747 5742 5739 5736 5735 5735 5733 5728 5728 5725 5722 5721 5720
5809 5815 5796 5835 5849 5860 5853 5807 5826 5834 5835 5825 5826 5827 5825 5820 5821 5822 5822 5819 5816 5811 5808 5808 5805 5799 5795 5789 5783 5777 5774 5770 5767 5763 5757 5753 5749 5745 5741 5737 5733 5730 5730 5730 5729 5727 5722 5718 5716
5798 5775 5793 5814 5850 5848 5844 5812 5834 5842 5844 5834 5827 5825 5823 5823 5822 5825 5826 5823 5819 5815 5809 5806 5805 5798 5793 5789 5783 5778 5773 5770 5769 5765 5758 5754 5753 5748 5744 5740 5738 5737 5731 5727 5724 5720 5721 5718 5716
5769 5785 5795 5798 5838 5844 5837 5833 5829 5837 5830 5821 5824 5825 5824 5822 5825 5829 5830 5827 5822 5817 5813 5810 5805 5800 5794 5787 5781 5777 5773 5770 5770 5766 5762 5760 5755 5749 5745 5741 5736 5738 5734 5728 5723 5719 5717 5715 5713
5798 5793 5794 5825 5850 5846 5836 5834 5827 5821 5819 5797 5806 5815 5829 5827 5835 5832 5833 5832 5825 5819 5812 5808 5804 5800 5793 5785 5777 5771 5768 5768 5768 5766 5766 5763 5758 5754 5747 5742 5739 5735 5731 5728 5725 5720 5715 5709 5711
5799 5790 5787 5816 5843 5845 5841 5832 5832 5822 5818 5810 5812 5821 5828 5831 5836 5839 5836 5835 5832 5824 5818 5812 5808 5802 5797 5791 5784 5776 5773 5771 5768 5766 5765 5763 5762 5758 5751 5745 5740 5735 5731 5727 5723 5720 5709 5705 5706
5796 5789 5793 5798 5828 5838 5834 5821 5833 5832 5835 5832 5829 5838 5836 5836 5836 5840 5840 5839 5836 5831 5828 5821 5814 5808 5803 5793 5786 5780 5775 5771 5766 5763 5763 5763 5761 5757 5754 5745 5737 5734 5729 5721 5715 5714 5709 5698 5697
5785 5818 5812 5810 5799 5771 5824 5760 5818 5837 5832 5836 5846 5840 5841 5843 5846 5845 5845 5841 5842 5844 5839 5832 5825 5816 5809 5801 5790 5782 5774 5767 5771 5769 5768 5763 5753 5746 5741 5739 5740 5731 5725 5720 5711 5709 5703 5700 5691
5789 5814 5805 5803 5792 5794 5794 5769 5794 5830 5822 5835 5841 5858 5847 5854 5852 5851 5850 5852 5855 5849 5845 5840 5831 5823 5816 5809 5797 5783 5776 5773 5771 5766 5762 5759 5745 5735 5729 5728 5724 5715 5715 5715 5709 5702 5697 5695 5690
5814 5802 5791 5792 5777 5738 5780 5774 5776 5800 5822 5837 5852 5858 5861 5861 5864 5862 5859 5861 5855 5854 5845 5839 5833 5823 5819 5810 5799 5789 5778 5768 5760 5757 5749 5737 5728 5722 5719 5720 5721 5715 5707 5702 5699 5698 5694 5690 5687
5794 5767 5724 5724 5728 5731 5790 5774 5793 5829 5845 5846 5848 5857 5863 5869 5865 5866 5854 5851 5850 5845 5842 5840 5832 5824 5817 5809 5799 5789 5781 5768 5753 5748 5740 5731 5727 5724 5724 5718 5715 5709 5701 5698 5683 5690 5688 5683 5680
5769 5762 5720 5717 5718 5735 5784 5763 5803 5844 5860 5857 5858 5862 5867 5863 5861 5863 5866 5858 5854 5847 5843 5838 5830 5826 5814 5797 5782 5771 5774 5764 5751 5742 5732 5720 5720 5719 5725 5718 5704 5696 5692 5691 5693 5683 5681 5678 5673
5766 5749 5781 5748 5757 5738 5761 5795 5832 5838 5847 5849 5852 5855 5848 5848 5851 5846 5842 5844 5838 5843 5842 5836 5822 5816 5814 5809 5805 5804 5769 5750 5737 5723 5722 5717 5711 5713 5721 5714 5706 5698 5689 5685 5683 5676 5671 5668 5665
5781 5787 5741 5739 5722 5723 5750 5771 5769 5795 5808 5821 5815 5825 5831 5835 5832 5827 5823 5820 5819 5823 5839 5825 5823 5818 5808 5798 5784 5774 5758 5752 5740 5722 5717 5707 5701 5711 5712 5705 5702 5698 5686 5682 5675 5669 5665 5660 5652
5761 5754 5761 5749 5741 5718 5720 5745 5792 5789 5794 5795 5788 5791 5802 5808 5792 5774 5774 5772 5809 5816 5809 5797 5789 5782 5777 5773 5765 5752 5739 5735 5723 5707 5710 5708 5703 5707 5702 5701 5693 5688 5673 5669 5664 5659 5652 5643 5638
5778 5768 5758 5722 5727 5737 5730 5717 5781 5785 5786 5785 5777 5782 5778 5771 5762 5762 5755 5741 5716 5771 5782 5772 5762 5759 5755 5742 5727 5717 5721 5717 5710 5703 5702 5702 5697 5693 5686 5683 5670 5668 5665 5656 5650 5644 5638 5631 5626